Location: Milton Keynes
(52.0316°N, 0.7531°W)
Time: 06:37:03
(UTC+00:00)

N. Korean satellite - Pass Details

Date: 31 January 2019
Orbit: 456 x 510 km, 97.2° (Epoch: 21 February)

Event Time Altitude Azimuth Distance (km) Brightness Sun altitude
Rises 06:33:28 0° 12° (NNE) 2,607 10.3 -11.1°
Reaches altitude 10° 06:35:35 10° 12° (NNE) 1,710 9.3 -10.8°
Maximum altitude 06:39:16 81° 285° (WNW) 503 6.5 -10.2°
Drops below altitude 10° 06:42:51 10° 198° (SSW) 1,664 9.3 -9.7°
Sets 06:44:53 0° 197° (SSW) 2,529 10.2 -9.4°
